Weather History for Corpus Christi, TX

Change the Weather History Date:

Saturday, April 30, 2011

  Actual Average Record
Temperature  
Mean Temperature 85 °F 75 °F  
Max Temperature 93 °F 84 °F 100 °F (1953)
Min Temperature 77 °F 67 °F 45 °F (1996)
Degree Days  
Heating Degree Days 0 0  
Month to date heating degree days 1 15  
Since 1 July heating degree days 934 898  
Cooling Degree Days 20 10  
Month to date cooling degree days 364 237  
Year to date cooling degree days 630 428  
Growing Degree Days 35 (Base 50)    
Moisture  
Dew Point 72 °F    
Average Humidity 69    
Maximum Humidity 85    
Minimum Humidity 52    
Precipitation  
Precipitation 0.00 in 0.08 in 4.17 in (1977)
Month to date precipitation 0.01 1.84  
Year to date precipitation 4.44 7.20  
Snow  
Snow 0.00 in - - ()
Month to date snowfall 0.0  
Since 1 July snowfall 0.0  
Snow Depth 0.00 in    
Sea Level Pressure  
Sea Level Pressure 29.70 in    
Wind  
Wind Speed 23 mph (SSE)    
Max Wind Speed 30 mph    
Max Gust Speed 43 mph    
Visibility 8 miles    
Events      
T = Trace of Precipitation, MM = Missing Value Source: NWS Daily Summary

Daily Weather History Graph

Daily Weather History Graph

Search for Another Location

Airport:

Trip Planner

Search our weather history database for the weather conditions in past years. The results will help you decide how hot, cold, wet, or windy it might be!

Date:

Astronomy

Apr. 30, 2011 Rise Set
Actual Time 6:51 AM CDT 8:03 PM CDT
Civil Twilight 6:26 AM CDT 8:28 PM CDT
Nautical Twilight 5:57 AM CDT 8:57 PM CDT
Astronomical Twilight 5:27 AM CDT 9:27 PM CDT
Moon 5:03 AM CDT (4/30) 6:02 PM CDT (4/30)
Length of Visible Light 14h 01m
Length of Day
13h 11m
Waning Crescent, 6% of the Moon is Illuminated
Apr 30
Waning Crescent
May 3
New
May 10
First Quarter
May 17
Full
May 24
Last Quarter

Hourly Weather History & Observations

Time (CDT) Temp. Heat Index Dew Point Humidity Pressure Visibility Wind Dir Wind Speed Gust Speed Precip Events Conditions
12:51 AM 77.0 °F - 71.1 °F 82% 29.78 in 10.0 mi SSE 23.0 mph 32.2 mph N/A   Overcast
1:39 AM 77.0 °F - 71.6 °F 83% 29.77 in 10.0 mi South 20.7 mph 28.8 mph N/A   Overcast
1:51 AM 77.0 °F - 71.1 °F 82% 29.75 in 10.0 mi SSE 24.2 mph 31.1 mph N/A   Overcast
2:51 AM 78.1 °F - 71.1 °F 79% 29.73 in 10.0 mi South 26.5 mph 33.4 mph N/A   Overcast
3:51 AM 78.1 °F - 71.1 °F 79% 29.72 in 10.0 mi South 19.6 mph 29.9 mph N/A   Overcast
4:51 AM 78.1 °F - 71.1 °F 79% 29.72 in 10.0 mi South 17.3 mph - N/A   Overcast
5:51 AM 78.1 °F - 71.1 °F 79% 29.71 in 10.0 mi South 18.4 mph 27.6 mph N/A   Overcast
6:51 AM 78.1 °F - 71.1 °F 79% 29.72 in 7.0 mi South 16.1 mph 25.3 mph N/A   Overcast
7:51 AM 78.1 °F - 72.0 °F 81% 29.74 in 7.0 mi South 16.1 mph - N/A   Mostly Cloudy
8:48 AM 80.6 °F 84.6 °F 71.6 °F 74% 29.73 in 8.0 mi SSE 24.2 mph 33.4 mph N/A   Scattered Clouds
8:51 AM 80.1 °F 83.8 °F 72.0 °F 76% 29.72 in 8.0 mi South 26.5 mph 33.4 mph N/A   Scattered Clouds
9:45 AM 82.4 °F 87.2 °F 71.6 °F 70% 29.71 in 8.0 mi SSE 26.5 mph 33.4 mph N/A   Mostly Cloudy
9:51 AM 82.0 °F 86.7 °F 72.0 °F 71% 29.71 in 8.0 mi South 26.5 mph 34.5 mph N/A   Mostly Cloudy
10:51 AM 84.0 °F 89.6 °F 72.0 °F 67% 29.72 in 7.0 mi South 27.6 mph 36.8 mph N/A   Mostly Cloudy
11:51 AM 84.0 °F 89.6 °F 72.0 °F 67% 29.71 in 8.0 mi South 20.7 mph 31.1 mph N/A   Mostly Cloudy
12:42 PM 87.8 °F 95.6 °F 73.4 °F 62% 29.70 in 7.0 mi SSE 24.2 mph 29.9 mph N/A   Mostly Cloudy
12:51 PM 87.1 °F 94.5 °F 73.0 °F 63% 29.70 in 8.0 mi SSE 23.0 mph 32.2 mph N/A   Mostly Cloudy
1:51 PM 91.0 °F 100.4 °F 73.9 °F 57% 29.67 in 8.0 mi SSE 24.2 mph 32.2 mph N/A   Partly Cloudy
2:51 PM 93.0 °F 103.2 °F 73.9 °F 54% 29.66 in 8.0 mi SSE 20.7 mph 28.8 mph N/A   Clear
3:51 PM 91.0 °F 99.3 °F 73.0 °F 55% 29.64 in 7.0 mi SSE 23.0 mph 34.5 mph N/A   Partly Cloudy
4:51 PM 88.0 °F 96.5 °F 73.9 °F 63% 29.63 in 7.0 mi SSE 25.3 mph 32.2 mph N/A   Scattered Clouds
5:51 PM 86.0 °F 93.8 °F 73.9 °F 67% 29.62 in 7.0 mi SSE 25.3 mph 35.7 mph N/A   Partly Cloudy
6:51 PM 82.0 °F 87.4 °F 73.0 °F 74% 29.63 in 7.0 mi SSE 24.2 mph 33.4 mph N/A   Mostly Cloudy
7:51 PM 80.1 °F 84.2 °F 73.0 °F 79% 29.63 in 7.0 mi SSE 24.2 mph 32.2 mph N/A   Scattered Clouds
8:51 PM 79.0 °F - 73.9 °F 84% 29.66 in 8.0 mi SSE 23.0 mph 29.9 mph N/A   Scattered Clouds
9:51 PM 79.0 °F - 73.9 °F 84% 29.68 in 7.0 mi SSE 24.2 mph 33.4 mph N/A   Scattered Clouds
10:15 PM 78.8 °F - 73.4 °F 83% 29.70 in 7.0 mi South 21.9 mph 28.8 mph N/A   Mostly Cloudy
10:51 PM 79.0 °F - 73.9 °F 84% 29.71 in 7.0 mi SSE 21.9 mph 31.1 mph N/A   Mostly Cloudy
11:51 PM 79.0 °F - 73.9 °F 84% 29.73 in 6.0 mi SSE 23.0 mph 28.8 mph N/A   Haze